カタログに戻る

BEIDOU 3 IGSO-3

運用中ナビゲーションGEO
NORAD 44709·PAYLOAD·🇨🇳 China

打ち上げ Nov 4, 2019 から Xichang Satellite Launch Center

Loading…

TLE

最新Source: Space-Track

元期: Sep 14, 2026, 11:09 UTC

1 44709U 19073A   26257.46492159 -.00000170  00000-0  00000+0 0  9994
2 44709  54.6510 279.9243 0046838 198.0895 161.7790  1.00263123 25356

AllMySatでBEIDOU 3 IGSO-3をリアルタイム追跡

Download on the App Store